DLH38J EDDM-LPPR

Flight info

Callsign DLH38J
Flight time N/A
Altitude 37000
Route ALG2E ALG Y109 UMTEX Y100 TRA DCT LUTIX DCT BENOT DCT NEMOS DCT NINTU DCT MEBAK DCT REPSI DCT LERGA DCT MINSO DCT NARAK DCT AGN DCT PIPOR L866 PPN N976 ZMR L155 ADORO DCT INKIT
Aircraft A20N/M-SDE2E3FGHIRWXY/LB1

Departure

Time N/A
Airport Munich Airport (EDDM)

Arrival

Time 2026-05-06 15:29
Airport Francisco de Sá Carneiro Airport (LPPR)
Time Latitude Longitude Altitude Speed Heading
2026-05-06 14:53 41.93706 -4.39450 36949 ft 431 kts 248°
2026-05-06 14:54 41.91345 -4.46837 36954 ft 431 kts 248°
2026-05-06 14:54 41.88986 -4.54195 36954 ft 431 kts 248°
2026-05-06 14:55 41.86604 -4.61605 36955 ft 431 kts 248°
2026-05-06 14:55 41.84234 -4.68956 36953 ft 431 kts 248°
2026-05-06 14:56 41.81850 -4.76332 36957 ft 431 kts 248°
2026-05-06 14:56 41.79468 -4.83680 36955 ft 430 kts 248°
2026-05-06 14:57 41.77091 -4.90997 36954 ft 430 kts 248°
2026-05-06 14:57 41.74702 -4.98331 36955 ft 431 kts 248°
2026-05-06 14:58 41.72297 -5.05689 36953 ft 432 kts 248°
2026-05-06 14:58 41.69888 -5.13042 36951 ft 432 kts 247°
2026-05-06 14:59 41.67474 -5.20392 36947 ft 432 kts 247°
2026-05-06 14:59 41.65074 -5.27674 36944 ft 433 kts 247°
2026-05-06 15:00 41.62646 -5.35024 36938 ft 433 kts 247°
2026-05-06 15:00 41.60210 -5.42375 36932 ft 433 kts 247°
2026-05-06 15:01 41.57790 -5.49658 36926 ft 433 kts 247°
2026-05-06 15:01 41.55468 -5.57029 36923 ft 432 kts 251°
2026-05-06 15:02 41.53677 -5.64665 36923 ft 431 kts 256°
2026-05-06 15:02 41.52484 -5.72506 36924 ft 432 kts 261°
2026-05-06 15:03 41.51828 -5.80434 36926 ft 432 kts 264°
2026-05-06 15:03 41.51256 -5.88380 36929 ft 431 kts 264°
2026-05-06 15:04 41.50679 -5.96314 36928 ft 431 kts 264°
2026-05-06 15:04 41.50094 -6.04251 36927 ft 431 kts 264°
2026-05-06 15:05 41.49506 -6.12154 36923 ft 431 kts 264°
2026-05-06 15:05 41.48824 -6.20092 36921 ft 431 kts 258°
2026-05-06 15:06 41.47496 -6.27865 36926 ft 432 kts 257°
2026-05-06 15:06 41.46111 -6.35597 36927 ft 432 kts 257°
2026-05-06 15:07 41.44708 -6.43390 36929 ft 432 kts 256°
2026-05-06 15:07 41.43131 -6.51065 36930 ft 432 kts 255°
2026-05-06 15:08 41.41515 -6.58775 36931 ft 433 kts 255°
2026-05-06 15:08 41.39903 -6.66487 36932 ft 433 kts 254°
2026-05-06 15:09 41.38291 -6.74184 36930 ft 433 kts 254°
2026-05-06 15:09 41.36676 -6.81886 36923 ft 434 kts 254°
2026-05-06 15:10 41.35065 -6.89542 36702 ft 426 kts 254°
2026-05-06 15:10 41.34267 -6.93328 36002 ft 424 kts 254°
2026-05-06 15:10 41.33484 -6.97039 35198 ft 430 kts 253°
2026-05-06 15:10 41.32671 -7.00886 33807 ft 434 kts 253°
2026-05-06 15:11 41.31855 -7.04720 32186 ft 438 kts 254°
2026-05-06 15:11 41.31031 -7.08590 30387 ft 443 kts 254°
2026-05-06 15:11 41.30202 -7.12478 28422 ft 450 kts 254°
2026-05-06 15:11 41.29351 -7.16464 26608 ft 449 kts 254°
2026-05-06 15:12 41.28523 -7.20340 25230 ft 440 kts 254°
2026-05-06 15:12 41.27693 -7.24214 23849 ft 431 kts 254°
2026-05-06 15:12 41.26892 -7.27952 22517 ft 424 kts 254°
2026-05-06 15:12 41.26091 -7.31677 21204 ft 421 kts 254°
2026-05-06 15:13 41.25293 -7.35385 20558 ft 413 kts 254°
2026-05-06 15:13 41.24517 -7.38983 20058 ft 406 kts 254°
2026-05-06 15:13 41.23744 -7.42566 19522 ft 401 kts 254°
2026-05-06 15:13 41.22980 -7.46098 19033 ft 395 kts 254°
2026-05-06 15:14 41.22226 -7.49582 18605 ft 388 kts 254°
2026-05-06 15:14 41.21488 -7.52985 18199 ft 384 kts 254°
2026-05-06 15:14 41.20746 -7.56397 17804 ft 383 kts 254°
2026-05-06 15:14 41.20010 -7.59774 17418 ft 381 kts 254°
2026-05-06 15:15 41.19278 -7.63131 16950 ft 379 kts 254°
2026-05-06 15:15 41.18653 -7.65993 16441 ft 379 kts 253°
2026-05-06 15:15 41.17918 -7.69353 15796 ft 380 kts 253°
2026-05-06 15:15 41.17186 -7.72694 15200 ft 379 kts 253°
2026-05-06 15:16 41.16454 -7.76031 14643 ft 377 kts 253°
2026-05-06 15:16 41.15720 -7.79373 14102 ft 374 kts 253°
2026-05-06 15:16 41.14996 -7.82666 13570 ft 372 kts 253°
2026-05-06 15:16 41.14282 -7.85907 13052 ft 370 kts 253°
2026-05-06 15:17 41.13560 -7.89175 12517 ft 368 kts 253°
2026-05-06 15:17 41.12844 -7.92416 11986 ft 366 kts 253°
2026-05-06 15:17 41.12132 -7.95632 11458 ft 364 kts 253°
2026-05-06 15:17 41.11415 -7.98868 10927 ft 362 kts 253°
2026-05-06 15:18 41.10714 -8.02024 10593 ft 354 kts 253°
2026-05-06 15:18 41.10031 -8.05103 10415 ft 341 kts 253°
2026-05-06 15:18 41.09378 -8.08032 10264 ft 329 kts 253°
2026-05-06 15:18 41.08741 -8.10890 10106 ft 317 kts 253°
2026-05-06 15:19 41.08124 -8.13652 9982 ft 305 kts 253°
2026-05-06 15:19 41.07534 -8.16287 9734 ft 298 kts 253°
2026-05-06 15:19 41.06945 -8.18912 9370 ft 297 kts 253°
2026-05-06 15:19 41.06357 -8.21527 8965 ft 296 kts 253°
2026-05-06 15:20 41.05779 -8.24104 8588 ft 293 kts 253°
2026-05-06 15:20 41.05197 -8.26692 8232 ft 291 kts 253°
2026-05-06 15:20 41.04628 -8.29220 7888 ft 288 kts 253°
2026-05-06 15:20 41.04059 -8.31748 7533 ft 286 kts 253°
2026-05-06 15:21 41.03487 -8.34281 7175 ft 284 kts 253°
2026-05-06 15:21 41.02923 -8.36782 6831 ft 282 kts 253°
2026-05-06 15:21 41.02358 -8.39284 6490 ft 280 kts 254°
2026-05-06 15:21 41.01797 -8.41760 6134 ft 279 kts 254°
2026-05-06 15:22 41.01247 -8.44187 5796 ft 277 kts 254°
2026-05-06 15:22 41.00699 -8.46609 5458 ft 275 kts 254°
2026-05-06 15:22 41.00210 -8.49064 5131 ft 272 kts 259°
2026-05-06 15:22 40.99840 -8.51479 4819 ft 270 kts 260°
2026-05-06 15:23 40.99481 -8.53913 4503 ft 268 kts 260°
2026-05-06 15:23 40.99121 -8.56356 4182 ft 265 kts 261°
2026-05-06 15:23 40.98860 -8.58721 3947 ft 257 kts 275°
2026-05-06 15:23 40.99428 -8.60829 3915 ft 236 kts 313°
2026-05-06 15:24 41.00756 -8.61980 3780 ft 224 kts 344°
2026-05-06 15:24 41.02235 -8.62400 3679 ft 213 kts 352°
2026-05-06 15:24 41.03701 -8.62682 3583 ft 203 kts 352°
2026-05-06 15:24 41.05106 -8.62976 3512 ft 200 kts 351°
2026-05-06 15:25 41.06511 -8.63309 3428 ft 200 kts 350°
2026-05-06 15:25 41.07896 -8.63664 3247 ft 201 kts 349°
2026-05-06 15:25 41.09297 -8.64036 2976 ft 200 kts 349°
2026-05-06 15:25 41.10699 -8.64411 2712 ft 198 kts 349°
2026-05-06 15:26 41.12036 -8.64767 2532 ft 188 kts 349°
2026-05-06 15:26 41.13332 -8.65111 2247 ft 184 kts 348°
2026-05-06 15:26 41.14602 -8.65447 1976 ft 180 kts 348°
2026-05-06 15:26 41.15799 -8.65762 1719 ft 170 kts 348°
2026-05-06 15:27 41.16939 -8.66061 1474 ft 157 kts 348°
2026-05-06 15:27 41.17965 -8.66324 1316 ft 142 kts 348°
2026-05-06 15:27 41.18935 -8.66560 1139 ft 140 kts 347°
2026-05-06 15:27 41.19891 -8.66844 956 ft 139 kts 345°
2026-05-06 15:28 41.20837 -8.67088 761 ft 139 kts 348°
2026-05-06 15:28 41.21795 -8.67333 531 ft 138 kts 346°
2026-05-06 15:28 41.22735 -8.67581 393 ft 135 kts 346°
2026-05-06 15:28 41.23667 -8.67825 245 ft 129 kts 346°
2026-05-06 15:29 41.24437 -8.68028 234 ft 89 kts 349°
2026-05-06 15:29 41.24882 -8.68143 235 ft 46 kts 348°
2026-05-06 15:29 41.25135 -8.68161 235 ft 25 kts 11°
2026-05-06 15:29 41.25264 -8.68108 235 ft 11 kts 18°
2026-05-06 15:30 41.25283 -8.68027 235 ft 11 kts 140°
2026-05-06 15:30 41.25200 -8.67997 235 ft 12 kts 169°
2026-05-06 15:30 41.25107 -8.67973 235 ft 14 kts 169°
2026-05-06 15:30 41.24998 -8.67945 235 ft 17 kts 168°
2026-05-06 15:31 41.24873 -8.67905 235 ft 18 kts 157°
2026-05-06 15:31 41.24754 -8.67826 235 ft 18 kts 165°
2026-05-06 15:31 41.24606 -8.67787 235 ft 24 kts 168°
2026-05-06 15:32 41.24271 -8.67653 235 ft 23 kts 124°
2026-05-06 15:32 41.24140 -8.67561 235 ft 21 kts 168°
2026-05-06 15:32 41.23989 -8.67521 234 ft 21 kts 168°
2026-05-06 15:32 41.23840 -8.67482 235 ft 21 kts 168°
2026-05-06 15:33 41.23694 -8.67444 235 ft 21 kts 169°
2026-05-06 15:33 41.23559 -8.67408 235 ft 13 kts 157°
2026-05-06 15:33 41.23523 -8.67336 235 ft 7 kts 115°
2026-05-06 15:33 41.23510 -8.67298 235 ft 2 kts 114°
2026-05-06 15:34 41.23506 -8.67286 235 ft 0 kts 114°